Time,TemperatureF,DewpointF,PressureIn,WindDirection,WindDirectionDegrees,WindSpeedMPH,WindSpeedGustMPH,Humidity,HourlyPrecipIn,Conditions,Clouds,dailyrainin,SolarRadiationWatts/m^2,SoftwareType,DateUTC
2013-05-31 00:02:00,44.0,22.0,-100.00,WNW,298,13.0,33.0,41,0.00,,,0.00,1.000000,,2013-05-31 06:02:00,
2013-05-31 00:12:00,44.0,22.0,-100.00,WNW,298,13.0,33.0,41,0.00,,,0.00,1.000000,,2013-05-31 06:12:00,
2013-05-31 00:21:00,44.0,22.0,-100.00,WNW,298,13.0,33.0,41,0.00,,,0.00,1.000000,,2013-05-31 06:21:00,
2013-05-31 00:42:00,44.0,18.0,-100.00,West,273,6.0,25.0,35,0.00,,,0.00,1.000000,,2013-05-31 06:42:00,
2013-05-31 00:52:00,44.0,18.0,-100.00,West,273,6.0,25.0,35,0.00,,,0.00,1.000000,,2013-05-31 06:52:00,
2013-05-31 01:02:00,44.0,18.0,-100.00,West,273,6.0,25.0,35,0.00,,,0.00,1.000000,,2013-05-31 07:02:00,
2013-05-31 01:11:00,44.0,18.0,-100.00,West,273,6.0,25.0,35,0.00,,,0.00,1.000000,,2013-05-31 07:11:00,
2013-05-31 01:21:00,44.0,18.0,-100.00,West,273,6.0,25.0,35,0.00,,,0.00,1.000000,,2013-05-31 07:21:00,
2013-05-31 01:42:00,44.0,17.0,-100.00,WSW,257,9.0,25.0,33,0.00,,,0.00,1.000000,,2013-05-31 07:42:00,
2013-05-31 01:53:00,44.0,17.0,-100.00,WSW,257,9.0,25.0,33,0.00,,,0.00,1.000000,,2013-05-31 07:53:00,
2013-05-31 02:02:00,44.0,17.0,-100.00,WSW,257,9.0,25.0,33,0.00,,,0.00,1.000000,,2013-05-31 08:02:00,
2013-05-31 02:11:00,44.0,17.0,-100.00,WSW,257,9.0,25.0,33,0.00,,,0.00,1.000000,,2013-05-31 08:11:00,
2013-05-31 02:21:00,44.0,17.0,-100.00,WSW,257,9.0,25.0,33,0.00,,,0.00,1.000000,,2013-05-31 08:21:00,
2013-05-31 02:42:00,43.0,17.0,-100.00,SW,235,8.0,25.0,34,0.00,,,0.00,1.000000,,2013-05-31 08:42:00,
2013-05-31 02:52:00,43.0,17.0,-100.00,SW,235,8.0,25.0,34,0.00,,,0.00,1.000000,,2013-05-31 08:52:00,
2013-05-31 03:01:00,43.0,17.0,-100.00,SW,235,8.0,25.0,34,0.00,,,0.00,1.000000,,2013-05-31 09:01:00,
2013-05-31 03:11:00,43.0,17.0,-100.00,SW,235,8.0,25.0,34,0.00,,,0.00,1.000000,,2013-05-31 09:11:00,
2013-05-31 03:21:00,43.0,17.0,-100.00,SW,235,8.0,25.0,34,0.00,,,0.00,1.000000,,2013-05-31 09:21:00,
2013-05-31 03:43:00,42.0,14.0,-100.00,SW,215,5.0,28.0,32,0.00,,,0.00,1.000000,,2013-05-31 09:43:00,
2013-05-31 03:53:00,42.0,14.0,-100.00,SW,215,5.0,28.0,32,0.00,,,0.00,1.000000,,2013-05-31 09:53:00,
2013-05-31 04:02:00,42.0,14.0,-100.00,SW,215,5.0,28.0,32,0.00,,,0.00,1.000000,,2013-05-31 10:02:00,
2013-05-31 04:12:00,42.0,14.0,-100.00,SW,215,5.0,28.0,32,0.00,,,0.00,1.000000,,2013-05-31 10:12:00,
2013-05-31 04:22:00,42.0,14.0,-100.00,SW,215,5.0,28.0,32,0.00,,,0.00,1.000000,,2013-05-31 10:22:00,
2013-05-31 04:42:00,41.0,15.0,-100.00,WSW,255,10.0,25.0,34,0.00,,,0.00,1.000000,,2013-05-31 10:42:00,
2013-05-31 04:52:00,41.0,15.0,-100.00,WSW,255,10.0,25.0,34,0.00,,,0.00,1.000000,,2013-05-31 10:52:00,
2013-05-31 05:02:00,41.0,15.0,-100.00,WSW,255,10.0,25.0,34,0.00,,,0.00,1.000000,,2013-05-31 11:02:00,
2013-05-31 05:11:00,41.0,15.0,-100.00,WSW,255,10.0,25.0,34,0.00,,,0.00,1.000000,,2013-05-31 11:11:00,
2013-05-31 05:22:00,41.0,15.0,-100.00,WSW,255,10.0,25.0,34,0.00,,,0.00,1.000000,,2013-05-31 11:22:00,
2013-05-31 05:42:00,41.0,14.0,-100.00,WSW,255,9.0,21.0,33,0.00,,,0.00,1.000000,,2013-05-31 11:42:00,
2013-05-31 05:52:00,41.0,14.0,-100.00,WSW,255,9.0,21.0,33,0.00,,,0.00,1.000000,,2013-05-31 11:52:00,
2013-05-31 06:01:00,41.0,14.0,-100.00,WSW,255,9.0,21.0,33,0.00,,,0.00,1.000000,,2013-05-31 12:01:00,
2013-05-31 06:11:00,41.0,14.0,-100.00,WSW,255,9.0,21.0,33,0.00,,,0.00,1.000000,,2013-05-31 12:11:00,
2013-05-31 06:21:00,41.0,14.0,-100.00,WSW,255,9.0,21.0,33,0.00,,,0.00,1.000000,,2013-05-31 12:21:00,
2013-05-31 06:42:00,41.0,12.0,-100.00,WSW,256,14.0,31.0,30,0.00,,,0.00,5.000000,,2013-05-31 12:42:00,
2013-05-31 06:52:00,41.0,12.0,-100.00,WSW,256,14.0,31.0,30,0.00,,,0.00,5.000000,,2013-05-31 12:52:00,
2013-05-31 07:01:00,41.0,12.0,-100.00,WSW,256,14.0,31.0,30,0.00,,,0.00,5.000000,,2013-05-31 13:01:00,
2013-05-31 07:11:00,41.0,12.0,-100.00,WSW,256,14.0,31.0,30,0.00,,,0.00,5.000000,,2013-05-31 13:11:00,
2013-05-31 07:21:00,41.0,12.0,-100.00,WSW,256,14.0,31.0,30,0.00,,,0.00,5.000000,,2013-05-31 13:21:00,
2013-05-31 07:42:00,44.0,11.0,-100.00,WSW,257,11.0,26.0,26,0.00,,,0.00,129.000000,,2013-05-31 13:42:00,
2013-05-31 07:52:00,44.0,11.0,-100.00,WSW,257,11.0,26.0,26,0.00,,,0.00,129.000000,,2013-05-31 13:52:00,
2013-05-31 08:02:00,44.0,11.0,-100.00,WSW,257,11.0,26.0,26,0.00,,,0.00,129.000000,,2013-05-31 14:02:00,
2013-05-31 08:11:00,44.0,11.0,-100.00,WSW,257,11.0,26.0,26,0.00,,,0.00,129.000000,,2013-05-31 14:11:00,
2013-05-31 08:21:00,44.0,11.0,-100.00,WSW,257,11.0,26.0,26,0.00,,,0.00,129.000000,,2013-05-31 14:21:00,
2013-05-31 08:42:00,46.0,14.0,-100.00,WSW,244,16.0,36.0,27,0.00,,,-99.99,324.000000,,2013-05-31 14:42:00,
2013-05-31 08:52:00,46.0,14.0,-100.00,WSW,244,16.0,36.0,27,0.00,,,-99.99,324.000000,,2013-05-31 14:52:00,
2013-05-31 09:01:00,46.0,14.0,-100.00,WSW,244,16.0,36.0,27,0.00,,,-99.99,324.000000,,2013-05-31 15:01:00,
2013-05-31 09:11:00,46.0,14.0,-100.00,WSW,244,16.0,36.0,27,0.00,,,-99.99,324.000000,,2013-05-31 15:11:00,
2013-05-31 09:21:00,46.0,14.0,-100.00,WSW,244,16.0,36.0,27,0.00,,,-99.99,324.000000,,2013-05-31 15:21:00,
2013-05-31 09:43:00,47.0,11.0,-100.00,West,259,15.0,44.0,23,0.00,,,0.00,479.000000,,2013-05-31 15:43:00,
2013-05-31 09:53:00,47.0,11.0,-100.00,West,259,15.0,44.0,23,0.00,,,0.00,479.000000,,2013-05-31 15:53:00,
2013-05-31 10:03:00,47.0,11.0,-100.00,West,259,15.0,44.0,23,0.00,,,0.00,479.000000,,2013-05-31 16:03:00,
2013-05-31 10:12:00,47.0,11.0,-100.00,West,259,15.0,44.0,23,0.00,,,0.00,479.000000,,2013-05-31 16:12:00,
2013-05-31 10:22:00,47.0,11.0,-100.00,West,259,15.0,44.0,23,0.00,,,0.00,479.000000,,2013-05-31 16:22:00,
2013-05-31 10:42:00,50.0,9.0,-100.00,WSW,257,18.0,37.0,19,0.00,,,0.00,717.000000,,2013-05-31 16:42:00,
2013-05-31 10:52:00,50.0,9.0,-100.00,WSW,257,18.0,37.0,19,0.00,,,0.00,717.000000,,2013-05-31 16:52:00,
2013-05-31 11:02:00,50.0,9.0,-100.00,WSW,257,18.0,37.0,19,0.00,,,0.00,717.000000,,2013-05-31 17:02:00,
2013-05-31 11:12:00,50.0,9.0,-100.00,WSW,257,18.0,37.0,19,0.00,,,0.00,717.000000,,2013-05-31 17:12:00,
2013-05-31 11:22:00,50.0,9.0,-100.00,WSW,257,18.0,37.0,19,0.00,,,0.00,717.000000,,2013-05-31 17:22:00,
2013-05-31 11:42:00,51.0,11.0,-100.00,West,260,17.0,40.0,20,0.00,,,0.00,879.000000,,2013-05-31 17:42:00,
2013-05-31 11:52:00,51.0,11.0,-100.00,West,260,17.0,40.0,20,0.00,,,0.00,879.000000,,2013-05-31 17:52:00,
2013-05-31 12:02:00,51.0,11.0,-100.00,West,260,17.0,40.0,20,0.00,,,0.00,879.000000,,2013-05-31 18:02:00,
2013-05-31 12:11:00,51.0,11.0,-100.00,West,260,17.0,40.0,20,0.00,,,0.00,879.000000,,2013-05-31 18:11:00,
2013-05-31 12:22:00,51.0,11.0,-100.00,West,260,17.0,40.0,20,0.00,,,0.00,879.000000,,2013-05-31 18:22:00,
2013-05-31 12:42:00,54.0,14.0,-100.00,West,271,13.0,51.0,20,0.00,,,0.00,1022.000000,,2013-05-31 18:42:00,
2013-05-31 12:52:00,54.0,14.0,-100.00,West,271,13.0,51.0,20,0.00,,,0.00,1022.000000,,2013-05-31 18:52:00,
2013-05-31 13:02:00,54.0,14.0,-100.00,West,271,13.0,51.0,20,0.00,,,0.00,1022.000000,,2013-05-31 19:02:00,
2013-05-31 13:11:00,54.0,14.0,-100.00,West,271,13.0,51.0,20,0.00,,,0.00,1022.000000,,2013-05-31 19:11:00,
2013-05-31 13:22:00,54.0,14.0,-100.00,West,271,13.0,51.0,20,0.00,,,0.00,1022.000000,,2013-05-31 19:22:00,
2013-05-31 13:42:00,55.0,15.0,-100.00,West,260,14.0,31.0,20,0.00,,,0.00,1058.000000,,2013-05-31 19:42:00,
2013-05-31 13:52:00,55.0,15.0,-100.00,West,260,14.0,31.0,20,0.00,,,0.00,1058.000000,,2013-05-31 19:52:00,
2013-05-31 14:02:00,55.0,15.0,-100.00,West,260,14.0,31.0,20,0.00,,,0.00,1058.000000,,2013-05-31 20:02:00,
2013-05-31 14:11:00,55.0,15.0,-100.00,West,260,14.0,31.0,20,0.00,,,0.00,1058.000000,,2013-05-31 20:11:00,
2013-05-31 14:22:00,55.0,15.0,-100.00,West,260,14.0,31.0,20,0.00,,,0.00,1058.000000,,2013-05-31 20:22:00,
2013-05-31 14:42:00,56.0,14.0,-100.00,West,270,12.0,30.0,19,0.00,,,0.00,1045.000000,,2013-05-31 20:42:00,
2013-05-31 14:52:00,56.0,14.0,-100.00,West,270,12.0,30.0,19,0.00,,,0.00,1045.000000,,2013-05-31 20:52:00,
2013-05-31 15:01:00,56.0,14.0,-100.00,West,270,12.0,30.0,19,0.00,,,0.00,1045.000000,,2013-05-31 21:01:00,
2013-05-31 15:11:00,56.0,14.0,-100.00,West,270,12.0,30.0,19,0.00,,,0.00,1045.000000,,2013-05-31 21:11:00,
2013-05-31 15:22:00,56.0,14.0,-100.00,West,270,12.0,30.0,19,0.00,,,0.00,1045.000000,,2013-05-31 21:22:00,
2013-05-31 15:43:00,56.0,14.0,-100.00,West,268,15.0,39.0,19,0.00,,,0.00,996.000000,,2013-05-31 21:43:00,
2013-05-31 15:54:00,56.0,14.0,-100.00,West,268,15.0,39.0,19,0.00,,,0.00,996.000000,,2013-05-31 21:54:00,
2013-05-31 16:02:00,56.0,14.0,-100.00,West,268,15.0,39.0,19,0.00,,,0.00,996.000000,,2013-05-31 22:02:00,
2013-05-31 16:12:00,56.0,14.0,-100.00,West,268,15.0,39.0,19,0.00,,,0.00,996.000000,,2013-05-31 22:12:00,
2013-05-31 16:22:00,56.0,14.0,-100.00,West,268,15.0,39.0,19,0.00,,,0.00,996.000000,,2013-05-31 22:22:00,
2013-05-31 16:42:00,57.0,15.0,-100.00,WSW,257,14.0,36.0,19,0.00,,,0.00,890.000000,,2013-05-31 22:42:00,
2013-05-31 16:53:00,57.0,15.0,-100.00,WSW,257,14.0,36.0,19,0.00,,,0.00,890.000000,,2013-05-31 22:53:00,
2013-05-31 17:02:00,57.0,15.0,-100.00,WSW,257,14.0,36.0,19,0.00,,,0.00,890.000000,,2013-05-31 23:02:00,
2013-05-31 17:12:00,57.0,15.0,-100.00,WSW,257,14.0,36.0,19,0.00,,,0.00,890.000000,,2013-05-31 23:12:00,
2013-05-31 17:21:00,57.0,15.0,-100.00,WSW,257,14.0,36.0,19,0.00,,,0.00,890.000000,,2013-05-31 23:21:00,
2013-05-31 17:42:00,58.0,16.0,-100.00,WSW,257,11.0,27.0,19,0.00,,,0.00,655.000000,,2013-05-31 23:42:00,
2013-05-31 17:52:00,58.0,16.0,-100.00,WSW,257,11.0,27.0,19,0.00,,,0.00,655.000000,,2013-05-31 23:52:00,
2013-05-31 18:01:00,58.0,16.0,-100.00,WSW,257,11.0,27.0,19,0.00,,,0.00,655.000000,,2013-06-01 00:01:00,
2013-05-31 18:11:00,58.0,16.0,-100.00,WSW,257,11.0,27.0,19,0.00,,,0.00,655.000000,,2013-06-01 00:11:00,
2013-05-31 18:22:00,58.0,16.0,-100.00,WSW,257,11.0,27.0,19,0.00,,,0.00,655.000000,,2013-06-01 00:22:00,
2013-05-31 18:42:00,57.0,15.0,-100.00,West,273,11.0,26.0,19,0.00,,,0.00,607.000000,,2013-06-01 00:42:00,
2013-05-31 18:52:00,57.0,15.0,-100.00,West,273,11.0,26.0,19,0.00,,,0.00,607.000000,,2013-06-01 00:52:00,
2013-05-31 19:01:00,57.0,15.0,-100.00,West,273,11.0,26.0,19,0.00,,,0.00,607.000000,,2013-06-01 01:01:00,
2013-05-31 19:11:00,57.0,15.0,-100.00,West,273,11.0,26.0,19,0.00,,,0.00,607.000000,,2013-06-01 01:11:00,
2013-05-31 19:21:00,57.0,15.0,-100.00,West,273,11.0,26.0,19,0.00,,,0.00,607.000000,,2013-06-01 01:21:00,
2013-05-31 19:42:00,54.0,14.0,-100.00,West,271,13.0,31.0,20,0.00,,,0.00,400.000000,,2013-06-01 01:42:00,
2013-05-31 19:52:00,54.0,14.0,-100.00,West,271,13.0,31.0,20,0.00,,,0.00,400.000000,,2013-06-01 01:52:00,
2013-05-31 20:01:00,54.0,14.0,-100.00,West,271,13.0,31.0,20,0.00,,,0.00,400.000000,,2013-06-01 02:01:00,
2013-05-31 20:11:00,54.0,14.0,-100.00,West,271,13.0,31.0,20,0.00,,,0.00,400.000000,,2013-06-01 02:11:00,
2013-05-31 20:21:00,54.0,14.0,-100.00,West,271,13.0,31.0,20,0.00,,,0.00,400.000000,,2013-06-01 02:21:00,
2013-05-31 20:42:00,51.0,12.0,-100.00,West,261,11.0,26.0,21,0.00,,,0.00,95.000000,,2013-06-01 02:42:00,
2013-05-31 20:52:00,51.0,12.0,-100.00,West,261,11.0,26.0,21,0.00,,,0.00,95.000000,,2013-06-01 02:52:00,
2013-05-31 21:02:00,51.0,12.0,-100.00,West,261,11.0,26.0,21,0.00,,,0.00,95.000000,,2013-06-01 03:02:00,
2013-05-31 21:11:00,51.0,12.0,-100.00,West,261,11.0,26.0,21,0.00,,,0.00,95.000000,,2013-06-01 03:11:00,
2013-05-31 21:21:00,51.0,12.0,-100.00,West,261,11.0,26.0,21,0.00,,,0.00,95.000000,,2013-06-01 03:21:00,
2013-05-31 21:43:00,50.0,13.0,-100.00,WSW,257,11.0,22.0,22,0.00,,,0.00,10.000000,,2013-06-01 03:43:00,
2013-05-31 21:53:00,50.0,13.0,-100.00,WSW,257,11.0,22.0,22,0.00,,,0.00,10.000000,,2013-06-01 03:53:00,
2013-05-31 22:03:00,50.0,13.0,-100.00,WSW,257,11.0,22.0,22,0.00,,,0.00,10.000000,,2013-06-01 04:03:00,
2013-05-31 22:12:00,50.0,13.0,-100.00,WSW,257,11.0,22.0,22,0.00,,,0.00,10.000000,,2013-06-01 04:12:00,
2013-05-31 22:23:00,50.0,13.0,-100.00,WSW,257,11.0,22.0,22,0.00,,,0.00,10.000000,,2013-06-01 04:23:00,
2013-05-31 22:42:00,50.0,16.0,-100.00,WSW,258,12.0,27.0,25,0.00,,,0.00,1.000000,,2013-06-01 04:42:00,
2013-05-31 22:53:00,50.0,16.0,-100.00,WSW,258,12.0,27.0,25,0.00,,,0.00,1.000000,,2013-06-01 04:53:00,
2013-05-31 23:02:00,50.0,16.0,-100.00,WSW,258,12.0,27.0,25,0.00,,,0.00,1.000000,,2013-06-01 05:02:00,
2013-05-31 23:12:00,50.0,16.0,-100.00,WSW,258,12.0,27.0,25,0.00,,,0.00,1.000000,,2013-06-01 05:12:00,
2013-05-31 23:22:00,50.0,16.0,-100.00,WSW,258,12.0,27.0,25,0.00,,,0.00,1.000000,,2013-06-01 05:22:00,
2013-05-31 23:43:00,50.0,16.0,-100.00,West,262,12.0,33.0,26,0.00,,,0.00,1.000000,,2013-06-01 05:43:00,
2013-05-31 23:52:00,50.0,16.0,-100.00,West,262,12.0,33.0,26,0.00,,,0.00,1.000000,,2013-06-01 05:52:00,